Location: Dover
(48.8500°N, 53.9833°W)
Time: 17:38:51
(UTC+00:00)

ATLAS 2AS CENTAUR R/B - Pass Details

Date: 14 November 2025
Orbit: 1047 x 1163 km, 63.7° (Epoch: 09 December)

Event Time Altitude Azimuth Distance (km) Brightness Sun altitude
Rises 22:13:36 0° 314° (NW) 3,863 6.3 -22.5°
Reaches altitude 10° 22:16:33 10° 323° (NW) 2,893 5.4 -22.9°
Maximum altitude 22:22:44 35° 28° (NNE) 1,630 3.4 -24.0°
Enters shadow 22:23:24 34° 40° (NE) 1,649 3.3 -24.1°
